カタログに戻る

OPS 4547

運用中軍事PO
NORAD 7244·PAYLOAD·🇺🇸 United States

打ち上げ Apr 10, 1974 から Vandenberg Space Force Base

Loading…

次のパス (今後24時間)

TLE

最新Source: Space-Track

元期: Sep 14, 2026, 11:10 UTC

1 07244U 74020B   26257.46583376  .00000044  00000-0  21133-4 0  9996
2 07244  94.6001 270.1891 0027379 159.2523 200.9788 14.31889353124817

AllMySatでOPS 4547をリアルタイム追跡

Download on the App Store